Orbital Elements at Epoch 2459000.5 (2020-May-31.0) TDB
Reference: JPL 17 (heliocentric ecliptic J2000)
Element | Value | Uncertainty (1-sigma) | Units |
e | .09841515063525426 | 5.9377e-08 | |
a | 2.551239804542056 | 2.1399e-08 | au |
q | 2.300159154871393 | 1.439e-07 | au |
i | 8.088672011997087 | 6.4525e-06 | deg |
node | 254.3245434532156 | 3.8773e-05 | deg |
peri | 206.9945875148016 | 5.2662e-05 | deg |
M | 119.9318220248687 | 3.8901e-05 | deg |
tp | 2458504.642049576288 (2019-Jan-21.14204958) | 0.00015761 | TDB |
period | 1488.419496499614 4.08 | 1.8727e-05 5.127e-08 | d yr |
n | .2418672967175107 | 3.0431e-09 | deg/d |
Q | 2.802320454212719 | 2.3505e-08 | au |
|
| | Orbit Determination Parameters
Additional Information
|